Location: Eastchurch
(51.4000°N, 0.8667°E)
Time: 00:45:34
(UTC+00:00)

RESURS DK-1 - Pass Details

Date: 19 January 2026
Orbit: 526 x 531 km, 69.9° (Epoch: 18 February)

Event Time Altitude Azimuth Distance (km) Brightness Sun altitude
Rises 17:41:51 0° 203° (SSW) 2,663 6.4 -11.8°
Reaches altitude 10° 17:44:01 10° 200° (SSW) 1,778 5.4 -12.2°
Maximum altitude 17:47:57 66° 119° (ESE) 584 2.2 -12.7°
Enters shadow 17:51:02 16° 38° (NE) 1,446 4.0 -13.2°
